Location: Regona
(45.2000°N, 9.8167°E)
Time: 03:17:12
(UTC+00:00)

UNK - Pass Details

Date: 07 June 2020
Orbit: 667 x 686 km, 98.1° (Epoch: 11 July)

Event Time Altitude Azimuth Distance (km) Brightness Sun altitude
Exits shadow 01:11:41 29° 178° (S) 1,227 4.6 -17.4°
Maximum altitude 01:14:01 73° 258° (WSW) 704 3.6 -17.2°
Drops below altitude 10° 01:18:36 10° 343° (NNW) 2,104 6.9 -16.8°
Sets 01:20:51 0° 345° (NNW) 3,021 7.8 -16.6°
